{"data":{"norad_id":68085,"intl_designator":"2026-042S","name":"STARLINK-37068","alt_names":[],"object_type":"PAYLOAD","status":"ACTIVE","operator":null,"country":"US","launch_date":"2026-03-04","launch_site_code":"AFETR","launch_vehicle":null,"mission":null,"orbit_class":"UNKNOWN","rcs_meters":null,"size_class":null,"mass_kg":null,"dimensions":null,"purposes":["comms"],"wikipedia_slug":null,"has_3d_model":false,"image_url":null,"decayed_at":null,"tle_current":{"epoch":"2026-09-19T23:10:24.498048Z","epoch_age_seconds":101657,"freshness":"FRESH","line1":"1 68085U 26042S   26262.96556132  .00024427  00000+0  73229-3 0  9990","line2":"2 68085  53.1598 350.3486 0001359  98.8647 261.2509 15.34375422 32139","mean_motion":15.34375422,"eccentricity":0.0001359,"inclination_deg":53.1598,"raan_deg":350.3486,"arg_perigee_deg":98.8647,"mean_anomaly_deg":261.2509,"bstar":0.00073229,"rev_number":3213,"period_min":93.849261357629,"perigee_km":461.8466120614,"apogee_km":463.70597229421,"semimajor_km":6840.9132921778,"source":"CELESTRAK","updated_at":"2026-09-20T09:00:43.781050Z"}}}